Location: Villingen
(48.0639°N, 8.4609°E)
Time: 22:11:58
(UTC+01:00)

ISS - Pass Details

Date: 13 November 2017
Orbit: 401 x 407 km, 51.6° (Epoch: 18 November)

Event Time Altitude Azimuth Distance (km) Brightness Sun altitude
Exits shadow 06:35:32 13° 283° (WNW) 1,268 -2.0 -9.2°
Maximum altitude 06:38:11 45° 212° (SSW) 562 -3.2 -8.8°
Drops below altitude 10° 06:41:18 10° 138° (SE) 1,450 0.0 -8.3°
Sets 06:43:25 0° 132° (SE) 2,306 1.4 -8.0°
